Torna al catalogo

STARLINK-4494

AttivoComunicazioniVLEO
NORAD 53558·PAYLOAD·🇺🇸 United States

Lanciato Aug 19, 2022 da Cape Canaveral Space Force Station

Loading…

Prossimi Passaggi (prossime 24 ore)

TLE

AggiornatoSource: CelesTrak SupGP

Epoca: Sep 14, 2026, 22:01 UTC

1 53558C 22101AH  26257.91784722  .00037686  00000+0  11138-2 0  2576
2 53558  53.1579 279.9537 0001178  88.7692 186.9469 15.34361070    11

Traccia STARLINK-4494 in tempo reale con AllMySat

Download on the App Store